Regional Weather Roundup
Issued by NWS

Home | Current Version | Previous Version | Graphics & Text | Print | Product List | Glossary On
Versions: 1 2 3 4 5 6 7 8 9 10 11 12 13 14 15 16 17 18 19 20 21 22 23 24 25 26 27 28 29 30 31 32 33 34 35 36 37 38 39 40 41 42 43 44 45 46 47 48 49 50
000
ASUS44 KMEG 271210
RWRTN
TENNESSEE HOURLY STATE WEATHER ROUNDUP
NATIONAL WEATHER SERVICE MEMPHIS TN
700 AM CDT WED JUL 27 2016

TNZ002-004-019-021-049-052-054-088>092-271300-
WEST TENNESSEE

CITY           SKY/WX    TMP DP  RH WIND       PRES   REMARKS
MEMPHIS INTL   PTCLDY    80  73  79 S6        29.97R
NWS MEMPHIS      N/A     76 N/A N/A MISG        N/A
JACKSON        SUNNY     74  73  97 CALM      29.99R
DYERSBURG      SUNNY     73  72  94 MISG      30.00R
UNION CITY     SUNNY     73  73 100 N3        29.98S
PARIS          MOSUNNY   73  73 100 CALM      30.01R
LEXINGTON      SUNNY     72  72 100 CALM      30.00R
$$

TNZ008-025-027-028-033-062-065-066-271300-
NORTH MIDDLE TENNESSEE

CITY           SKY/WX    TMP DP  RH WIND       PRES   REMARKS
NASHVILLE      MOSUNNY   77  72  84 CALM      30.03R
CLARKSVILLE    MOSUNNY   75  73  93 CALM      30.01R
SMYRNA         SUNNY     76  73  90 SE6       30.04R
COOKEVILLE     SUNNY     75  73  94 CALM      30.06S
CROSSVILLE     SUNNY     73  70  90 W3        30.12R
$$

TNZ061-075-076-078-094-096-097-271300-
SOUTH MIDDLE TENNESSEE

CITY           SKY/WX    TMP DP  RH WIND       PRES   REMARKS
FAYETTEVILLE   SUNNY     75  73  94 CALM      30.06R
TULLAHOMA      MOSUNNY   75  72  88 CALM      30.07R
WINCHESTER     MOSUNNY   75  72  88 CALM      30.06R
MCMINNVILLE    SUNNY     77  77 100 CALM      30.06S
COLUMBIA       SUNNY    N/A N/A N/A S3        30.01R
SHELBYVILLE    SUNNY     77  75  94 CALM      30.05R
$$

TNZ017-018-042-046-047-271300-
NORTHEAST TENNESSEE

CITY           SKY/WX    TMP DP  RH WIND       PRES   REMARKS
TRI CITIES     CLOUDY    74  70  87 CALM      30.10R
ELIZABETHTON   PTSUNNY   73  72  94 CALM      30.10R
$$

TNZ012-013-036-069-073-074-271300-
CENTRAL EAST TENNESSEE

CITY           SKY/WX    TMP DP  RH WIND       PRES   REMARKS
KNOXVILLE      MOSUNNY   77  72  84 W3        30.06R
OAK RIDGE      MOSUNNY   78  71  79 VRB5      30.07R
GATLINBURG     SUNNY     72  70  94 CALM      30.07R
MORRISTOWN     MOSUNNY   75  73  94 CALM      30.08R
$$

TNZ083-085-099-271300-
SOUTHEAST TENNESSEE

CITY           SKY/WX    TMP DP  RH WIND       PRES   REMARKS
CHATTANOOGA    PTSUNNY   77  72  84 CALM      30.06R
$$

SKY/WX REPORTED AS FAIR MEANS FEW OR NO CLOUDS BELOW
12 THOUSAND FEET.





USA.gov is the U.S. government's official web portal to all federal, state and local government web resources and services.